Weather History for KIAB - May, 2013

Change the Weather History Date:

Friday, May 31, 2013

  Actual Average Record
Temperature  
Mean Temperature 74 °F -  
Max Temperature 81 °F 77 °F 93 °F (2000)
Min Temperature 66 °F 58 °F 53 °F (2004)
Cooling Degree Days 10    
Growing Degree Days 24 (Base 50)    
Moisture  
Dew Point 70 °F    
Average Humidity 93    
Maximum Humidity 100    
Minimum Humidity 54    
Precipitation  
Precipitation 0.00 in - - ()
Sea Level Pressure  
Sea Level Pressure 29.69 in    
Wind  
Wind Speed 7 mph (SE)    
Max Wind Speed 18 mph    
Max Gust Speed 23 mph    
Visibility 9 miles    
Events      
Averages and records for this station are not official NWS values.
T = Trace of Precipitation, MM = Missing Value Source: NWS Daily Summary

Daily Weather History Graph

Daily Weather History Graph

Search for Another Location

Airport or City:

Trip Planner

Search our weather history database for the weather conditions in past years. The results will help you decide how hot, cold, wet, or windy it might be!

Date:

Astronomy

May. 31, 2013 Rise Set
Actual Time 6:09 AM CDT 8:44 PM CDT
Civil Twilight 5:38 AM CDT 9:15 PM CDT
Nautical Twilight 5:01 AM CDT 9:53 PM CDT
Astronomical Twilight 4:18 AM CDT 10:35 PM CDT
Moon 1:25 AM CDT (5/31) 1:19 PM CDT (5/31)
Length of Visible Light 15h 36m
Length of Day
14h 34m
Waning Gibbous, 51% of the Moon is Illuminated
May 31
Waning Gibbous
May 31
Last Quarter
Jun 8
New
Jun 16
First Quarter
Jun 23
Full

Hourly Weather History & Observations

Time (CDT) Temp. Heat Index Dew Point Humidity Pressure Visibility Wind Dir Wind Speed Gust Speed Precip Events Conditions
12:58 AM 68.7 °F - 68.7 °F 100% 29.66 in 10.0 mi East 6.9 mph - N/A   Partly Cloudy
1:18 AM 68.0 °F - 68.0 °F 100% 29.68 in 10.0 mi East 6.9 mph - N/A   Mostly Cloudy
1:30 AM 68.0 °F - 68.0 °F 100% 29.67 in 10.0 mi East 8.1 mph - N/A   Mostly Cloudy
1:45 AM 68.0 °F - 68.0 °F 100% 29.67 in 10.0 mi East 6.9 mph - N/A   Scattered Clouds
1:50 AM 68.0 °F - 68.0 °F 100% 29.67 in 10.0 mi East 8.1 mph - N/A   Mostly Cloudy
1:58 AM 68.5 °F - 68.5 °F 100% 29.65 in 10.0 mi East 6.9 mph - N/A   Mostly Cloudy
2:13 AM 68.0 °F - 68.0 °F 100% 29.66 in 10.0 mi East 5.8 mph - N/A   Overcast
2:33 AM 69.8 °F - 69.8 °F 100% 29.66 in 9.0 mi East 6.9 mph - N/A   Mostly Cloudy
2:38 AM 69.8 °F - 69.8 °F 100% 29.66 in 9.0 mi East 5.8 mph - N/A   Mostly Cloudy
2:58 AM 69.4 °F - 69.4 °F 100% 29.63 in 9.0 mi East 5.8 mph - N/A   Overcast
3:58 AM 69.4 °F - 69.4 °F 100% 29.63 in 7.0 mi ESE 6.9 mph - N/A   Mostly Cloudy
4:03 AM 69.8 °F - 69.8 °F 100% 29.65 in 6.0 mi ESE 8.1 mph - N/A   Scattered Clouds
4:18 AM 69.8 °F - 69.8 °F 100% 29.64 in 7.0 mi SE 9.2 mph - N/A   Partly Cloudy
4:46 AM 69.8 °F - 69.8 °F 100% 29.64 in 7.0 mi SSE 9.2 mph - N/A   Partly Cloudy
4:56 AM 69.8 °F - 69.8 °F 100% 29.64 in 7.0 mi SSE 9.2 mph - N/A   Partly Cloudy
4:58 AM 69.3 °F - 69.3 °F 100% 29.61 in 7.0 mi SSE 8.1 mph - N/A   Partly Cloudy
5:43 AM 69.8 °F - 69.8 °F 100% 29.64 in 8.0 mi South 9.2 mph - N/A   Scattered Clouds
5:53 AM 69.8 °F - 69.8 °F 100% 29.64 in 9.0 mi South 10.4 mph - N/A   Partly Cloudy
5:58 AM 69.1 °F - 69.1 °F 100% 29.61 in 7.0 mi South 11.5 mph - N/A   Partly Cloudy
6:58 AM 69.1 °F - 69.1 °F 100% 29.65 in 10.0 mi SSE 6.9 mph - N/A   Clear
7:13 AM 69.8 °F - 69.8 °F 100% 29.69 in 10.0 mi South 4.6 mph - N/A   Mostly Cloudy
7:15 AM 69.8 °F - 69.8 °F 100% 29.69 in 10.0 mi Variable 2.3 mph - N/A   Mostly Cloudy
7:25 AM 69.8 °F - 69.8 °F 100% 29.70 in 10.0 mi Variable 3.5 mph - N/A   Mostly Cloudy
7:35 AM 69.8 °F - 69.8 °F 100% 29.70 in 10.0 mi SW 4.6 mph - N/A   Overcast
7:40 AM 69.8 °F - 69.8 °F 100% 29.71 in 10.0 mi SW 5.8 mph - N/A   Overcast
7:50 AM 69.8 °F - 69.8 °F 100% 29.71 in 10.0 mi South 8.1 mph - N/A   Overcast
7:55 AM 71.6 °F - 71.6 °F 100% 29.70 in 10.0 mi SSW 5.8 mph - N/A   Mostly Cloudy
7:58 AM 70.7 °F - 70.7 °F 100% 29.68 in 10.0 mi SSW 4.6 mph - N/A   Mostly Cloudy
8:03 AM 71.6 °F - 71.6 °F 100% 29.71 in 10.0 mi South 4.6 mph - N/A   Mostly Cloudy
8:58 AM 73.6 °F - 73.6 °F 100% 29.70 in 10.0 mi SSW 5.8 mph - N/A   Clear
9:58 AM 75.7 °F - 74.7 °F 96% 29.73 in 10.0 mi West 6.9 mph - N/A   Scattered Clouds
10:13 AM 75.2 °F - 73.4 °F 94% 29.75 in 10.0 mi West 8.1 mph - N/A   Mostly Cloudy
10:18 AM 77.0 °F - 73.4 °F 89% 29.75 in 10.0 mi West 8.1 mph - N/A   Mostly Cloudy
10:28 AM 75.2 °F - 73.4 °F 94% 29.75 in 10.0 mi West 9.2 mph - N/A   Overcast
10:33 AM 75.2 °F - 73.4 °F 94% 29.76 in 10.0 mi West 6.9 mph - N/A   Overcast
10:53 AM 75.2 °F - 73.4 °F 94% 29.76 in 10.0 mi West 8.1 mph - N/A   Mostly Cloudy
10:58 AM 75.6 °F - 73.9 °F 95% 29.73 in 10.0 mi WNW 5.8 mph - N/A   Mostly Cloudy
11:58 AM 77.0 °F - 74.7 °F 92% 29.73 in 10.0 mi North 6.9 mph - N/A   Mostly Cloudy
12:58 PM 76.6 °F - 72.5 °F 87% 29.73 in 10.0 mi North 6.9 mph - N/A   Scattered Clouds
1:58 PM 77.5 °F - 72.5 °F 84% 29.73 in 10.0 mi Variable 3.5 mph - N/A   Scattered Clouds
2:58 PM 78.6 °F - 72.3 °F 81% 29.71 in 10.0 mi North 5.8 mph - N/A   Partly Cloudy
3:58 PM 77.9 °F - 69.1 °F 74% 29.71 in 10.0 mi North 11.5 mph - N/A   Mostly Cloudy
4:58 PM 80.6 °F 82.7 °F 65.8 °F 61% 29.70 in 10.0 mi NNE 12.7 mph - N/A   Partly Cloudy
5:58 PM 81.9 °F 83.2 °F 63.9 °F 54% 29.66 in 10.0 mi North 18.4 mph - N/A   Clear
6:58 PM 79.7 °F - 62.6 °F 56% 29.65 in 10.0 mi NNE 17.3 mph 23.0 mph N/A   Clear
7:58 PM 78.1 °F - 64.9 °F 64% 29.68 in 10.0 mi NE 13.8 mph - N/A   Clear
8:58 PM 76.6 °F - 60.4 °F 57% 29.72 in 10.0 mi ESE 5.8 mph - N/A   Scattered Clouds
9:58 PM 72.9 °F - 65.3 °F 77% 29.74 in 10.0 mi SE 5.8 mph - N/A   Clear
10:58 PM 70.0 °F - 65.8 °F 87% 29.73 in 10.0 mi ESE 2.3 mph - N/A   Clear
11:58 PM 66.9 °F - 66.0 °F 97% 29.74 in 10.0 mi NE 4.6 mph - N/A   Clear